Regional Weather Roundup
Issued by NWS Upton, NY

Current Version | Previous Version | Text Only | Print | Product List | Glossary Off
Versions: 1 2 3 4 5 6 7 8 9 10 11 12 13 14 15 16 17 18 19 20 21 22 23 24 25 26 27 28 29 30 31 32 33 34 35 36 37 38 39 40 41 42 43 44 45 46 47 48 49 50
000 ASUS41 KOKX 260009 RWROKX REGIONAL WEATHER ROUNDUP NATIONAL WEATHER SERVICE NEW YORK NY 800 PM EDT THU MAY 25 2017 NOTE: "FAIR" INDICATES FEW OR NO CLOUDS BELOW 12,000 FEET WITH NO SIGNIFICANT WEATHER AND/OR OBSTRUCTIONS TO VISIBILITY. NYZ071-072-176-178-NJZ106-104-260100- NEW YORK CITY METRO AREA CITY SKY/WX TMP DP RH WIND PRES REMARKS Central Park CLOUDY 57 56 96 E8G18 29.55F FOG Wall St Helipt CLOUDY 58 57 97 NE16 29.53F FOG Bronx Bot Gard N/A 55 55 100 NW7 29.53F LaGuardia APRT DRZL/FOG 57 56 96 NE16 29.53S VSB 1/2 Kennedy INTL DRZL/FOG 60 60 100 E9 29.54S VSB 1 Breezy Point N/A 57 N/A N/A E12 N/A Newark/Liberty DRIZZLE 57 57 100 NE13 29.52F FOG Teterboro DRIZZLE 58 57 97 NE7 29.52F FOG $$ NYZ177-179-078>081-260100- LONG ISLAND NEW YORK CITY SKY/WX TMP DP RH WIND PRES REMARKS Jones Beach N/A 57 N/A N/A E13G21 N/A Matinecock PT N/A 68 N/A N/A E26 N/A Farmingdale FOG 59 59 100 E7 29.54S VSB 1 MacArthur/ISP FOG 58 58 100 E9 29.54S VSB 1/4 Shirley FOG 57 57 100 VRB6 29.56S VSB 1/2 Mt Sinai Harb N/A 55 N/A N/A E9 N/A Westhampton FOG 57 56 96 E9 29.58S VSB 1/2 East Hampton FOG 56 55 99 E6 29.57S VSB 1 Montauk N/A 55 55 100 E10 29.60F $$ NYZ052-065-067-260100- HUDSON VALLEY CITY SKY/WX TMP DP RH WIND PRES REMARKS White Plains DRZL/FOG 58 56 93 E12 29.54F VSB 1 Larchmont Harb N/A 55 N/A N/A NE31 N/A Croton O-T Hud N/A 59 N/A N/A CALM N/A Newburgh CLOUDY 57 57 100 E8 29.57F FOG Montgomery LGT RAIN 58 56 93 NE9 29.55F FOG Poughkeepsie CLOUDY 58 54 86 NE6 29.56S Albany DRIZZLE 57 55 93 CALM 29.62R $$ NJZ001-105-106-008-010-013-015-019>022-104-260100- NEW JERSEY CITY SKY/WX TMP DP RH WIND PRES REMARKS Newark/Liberty DRIZZLE 57 57 100 NE13 29.52F FOG Teterboro DRIZZLE 58 57 97 NE7 29.52F FOG Caldwell CLOUDY 59 57 93 NE8G17 29.53F FOG Somerville CLOUDY 59 57 93 NE9 29.48F Linden CLOUDY 59 57 94 NE5 29.52S Perth Amboy N/A 59 N/A N/A E8 N/A Sussex CLOUDY 59 58 96 N10 29.54F FOG Andover N/A 59 55 87 NE6 29.51F Trenton LGT RAIN 60 59 96 NE9 29.49R Millville MOCLDY 68 65 90 W7 29.45R Atlantic City CLOUDY 65 61 87 S7 29.45S Wrightstown CLOUDY 61 60 96 NW9 29.47R FOG Toms River FOG 62 61 96 E6 29.49R VSB 1/4 Belmar FOG 58 58 100 NE6 29.49F VSB 1/4 $$ PAZ047>061-062-071-260100- EASTERN PENNSYLVANIA CITY SKY/WX TMP DP RH WIND PRES REMARKS Philadelphia CLOUDY 63 60 90 NE9G22 29.47R Allentown LGT RAIN 62 57 83 E8 29.50R Scranton MOCLDY 62 57 83 VRB3 29.49F $$ CTZ002-004>006-009-010-012-RIZ004-006-007-MAZ004-011-015-260100- SOUTHERN NEW ENGLAND IN CT CITY SKY/WX TMP DP RH WIND PRES REMARKS Bradley INTL LGT RAIN 53 53 100 N12 29.64S FOG Hartford CLOUDY 56 54 93 N7 29.63R FOG Danbury CLOUDY 55 55 100 NE12G20 29.58S Wtrbury/Oxford LGT RAIN 55 50 82 E12G17 29.60F FOG Bridgeport CLOUDY 59 57 93 NE12 29.56F FOG Meriden CLOUDY 55 55 100 N7 29.60S FOG New Haven CLOUDY 58 56 93 NE10 29.58S FOG Chester FOG 55 55 100 NE8 29.59S VSB 1 Groton CLOUDY 57 55 93 NE12 29.59F FOG Wilimantic CLOUDY 56 54 93 NE7 29.63F IN RI CITY SKY/WX TMP DP RH WIND PRES REMARKS Providence DRIZZLE 54 54 100 NE13 29.64F FOG Block Island LGT RAIN 55 55 100 NE12 29.61F VSB 1/4 Westerly CLOUDY 57 56 96 NE6 29.61F FOG IN MA CITY SKY/WX TMP DP RH WIND PRES REMARKS Boston CLOUDY 52 51 97 NE18 29.69F FOG Worcester LGT RAIN 49 47 93 NE12 29.67S VSB 1/2 Westfield RAIN 53 53 100 NE8 29.65S FOG Provincetown FOG 53 52 96 E8 29.66F VSB 1 Nantucket LGT RAIN 57 55 93 SE10 29.63F VSB 1/4 $$ ANZ330-335-338-340-345-350-353-355-260100- COASTAL MARINE OBSERVATIONS STATION/POSITION TIME SKY/WX TEMP WIND PRES VSBY WAVE AIR SEA DIR/SP/G HT/PER (UTC) (F) (DEG/KT/KT) (MB) (MI) (FT/S) NY HARB ENTRANCE 2350 58 56 100/ 10/ 12 998.8 5/ 6 20 S FIRE ISLAND 2350 57 54 120/ 6/ 8 998.9 5/ 6 GREAT SOUTH BAY 2330 57 63 80/ 16/ 21 N/A 23 SSW MONTAUK P 2250 54 53 1001.8 5/ 6 15 E BARNEGAT LI 2330 57 N/A 5/ 6 HUDSON CANYON 2350 59 54 150/ 10/ 12 999.6 6/ 8 KINGS POINT 2324 57 57 50/ 5/ 8 1000.1 EXECUTION ROCKS 2345 57 N/A CENTRAL LI SOUND NOT AVBL EASTERN LI SOUND NOT AVBL ROBBINS REEF 2324 58 30/ 10/ 11 1000.5 $$ >>>>>>>>>>>>>>>>>>>>>>>>>>>> KEY <<<<<<<<<<<<<<<<<<<<<<<<<<< > < > SKY/WX - Sky Condition/Present Weather < > TMP - Temperature in Fahrenheit < > DP - Dew Point in Fahrenheit < > RH - Relative Humidity in Percent < > WIND - Direction (from) and Speed in MPH < > PRES - Mean Sea Level Pressure (inches of Hg) < > WCI - Wind Chill Index < > VSB - VISIBILITY IN MILES < > HX - HEAT INDEX < > TC - TEMPERATURE IN CELSIUS < > VRB - VARIABLE WIND DIRECTION < > < >>>>>>>>>>>>>>>>>>>>>>>>>>>> KEY <<<<<<<<<<<<<<<<<<<<<<<<<<<

USA.gov is the U.S. government's official web portal to all federal, state and local government web resources and services.